This demonstration page uses our WeatherBlox Daily Observations layout. Learn more.

Left ArrowRight Arrow

39.29038, -76.61219

Hourly Observations for January 18, 2015

Temp ( °F °C ) Dew Point ( °F °C ) Humidity (%) Winds ( mph kmh ) Pressure ( in mb ) Visibility ( mi km ) Precip ( " mm )
12:54 am 00:54 undefined 32 0 27 -2.8 82 82 undefined N/A 30.16 1021 N/A 0.00 0.00
1:54 am 01:54 undefined 33 0.6 28 -2.2 82 82 undefined N/A 30.14 1021 N/A 0.00 0.00
2:54 am 02:54 undefined 33 0.6 28 -2.2 82 82 undefined N/A 30.11 1020 N/A 0.00 0.00
3:54 am 03:54 undefined 33 0.6 29 -1.7 85 85 undefined N/A 30.08 1019 N/A 0.00 0.00
4:54 am 04:54 undefined 37 2.8 30 -1.1 76 76 undefined N/A 30.08 1019 N/A 0.00 0.00
5:54 am 05:54 undefined 37 2.8 30 -1.1 76 76 undefined N/A 30.06 1018 N/A 0.00 0.00
6:54 am 06:54 undefined 36 2.2 31 -0.6 82 82 undefined N/A 30.03 1017 N/A 0.00 0.00
7:54 am 07:54 undefined 36 2.2 32 0 86 86 undefined N/A 29.98 1015 N/A 0.01 0.25
8:54 am 08:54 undefined 36 2.2 34 1.1 93 93 undefined N/A 29.97 1015 N/A 0.14 3.56
9:54 am 09:54 undefined 37 2.8 35 1.7 93 93 undefined N/A 29.95 1014 N/A 0.13 3.30
10:54 am 10:54 undefined 38 3.3 37 2.8 97 97 undefined N/A 29.90 1013 N/A 0.09 2.29
11:54 am 11:54 undefined 38 3.3 37 2.8 97 97 undefined N/A 29.86 1011 N/A 0.07 1.78
12:54 pm 12:54 undefined 40 4.4 38 3.3 93 93 undefined N/A 29.79 1009 N/A 0.03 0.76
1:54 pm 13:54 undefined 41 5 39 3.9 93 93 undefined N/A 29.76 1008 N/A 0.00 0.00
2:54 pm 14:54 undefined 41 5 39 3.9 93 93 undefined N/A 29.75 1008 N/A 0.00 0.00
3:54 pm 15:54 undefined 41 5 39 3.9 93 93 undefined N/A 29.76 1008 N/A 0.00 0.00
4:54 pm 16:54 undefined 41 5 39 3.9 93 93 undefined N/A 29.77 1008 N/A 0.00 0.00
5:54 pm 17:54 undefined 41 5 37 2.8 86 86 undefined N/A 29.80 1009 N/A 0.00 0.00
6:54 pm 18:54 undefined 39 3.9 35 1.7 86 86 undefined N/A 29.81 1009 N/A 0.00 0.00
7:54 pm 19:54 undefined 38 3.3 33 0.6 83 83 undefined N/A 29.82 1010 N/A 0.00 0.00
8:54 pm 20:54 undefined 39 3.9 31 -0.6 73 73 undefined N/A 29.81 1010 N/A 0.00 0.00
9:54 pm 21:54 undefined 39 3.9 31 -0.6 73 73 undefined N/A 29.83 1010 N/A 0.00 0.00
10:54 pm 22:54 undefined 39 3.9 29 -1.7 67 67 undefined N/A 29.84 1011 N/A 0.00 0.00
11:54 pm 23:54 undefined 38 3.3 29 -1.7 70 70 undefined N/A 29.84 1011 N/A 0.00 0.00

Powered by AerisWeather